User: anonymous
Location: Caltech
(34.1382°N, 118.1253°W)
Time: 19:42:28
(UTC-07:00)
Language:

MaSat-1 - Orbit

View from above orbital plane
View from above orbital plane
View from above satellite
View from above satellite

Ground track
Ground track

The orbit data is extracted from the following two-line orbital elements,

1 38081U 12006E   14113.83986332  .00111709  55006-5  15260-2 0  9751
2 38081 069.4494 133.2279 0410894 073.5678 343.0095 14.97018190115301
Epoch (UTC): 23 April 2014 20:09:24
Eccentricity: 0.0410894
inclination: 69.4494°
perigee height: 290 km
apogee height: 862 km
right ascension of ascending node: 133.2279°
argument of perigee: 73.5678°
revolutions per day: 14.97018190
mean anomaly at epoch: 343.0095°
orbit number at epoch: 11530

The dashed part of the orbit path shows where the satellite is in the earth's shadow,  

DLR